Flag for Germany Weather past 2 weeks in Weyhe, Lower Saxony, Germany

Now
52 °F

Partly sunny.


Feels Like: 48 °F
Forecast: 44 / 57 °F
Wind: 12 mph from Southwest

Location: Bremen Airport

Current Time: May 6, 2015 at 8:42:25 PM

Latest Report: May 6, 2015 at 8:20 PM


Visibility: N/A

Pressure: 29.83 "Hg

Humidity: 77%

Dew point: 45 °F

Location of WeyheLocation

Historic Weather in Weyhe — Graph

°F

Weyhe temperature yesterday

Maximum temperature yesterday: 75 °F (at 2:50 PM)
Minimum temperature yesterday: 48 °F (at 11:50 PM)
Average temperature yesterday: 62 °F

Past Weeks' High & Low Weather Summary

 TemperatureHumidityPressure
High75 °F (May 5, 2:50 PM)100% (Apr 24, 1:20 AM)30.42 "Hg (Apr 24, 1:20 AM)
Low30 °F (Apr 28, 4:50 AM)33% (Apr 29, 3:20 PM)29.42 "Hg (May 5, 9:20 AM)
Average50 °F75%29.86 "Hg
* Reported Apr 21 7:20 PM — May 6 7:20 PM, Weyhe, Weather by CustomWeather, © 2015

Note: Actual official high and low records may vary slightly from our data, if they occured in-between our weather recording intervals... More about our weather records

Advertising

Weyhe weather history for previous 24 hours

 ConditionsComfort  
Time TempWeatherWind HumidityBarometerVisibility
7:20 PM
Wed, May 6
54 °FScattered clouds.1 mph72%29.80 "HgN/A
6:50 PM55 °FPartly sunny.8 mph67%29.80 "HgN/A
6:20 PM57 °FPartly sunny.16 mph59%29.80 "HgN/A
5:50 PM59 °FPassing clouds.15 mph63%29.80 "HgN/A
5:20 PM55 °FSprinkles. Broken clouds.22 mph77%29.80 "HgN/A
4:50 PM57 °FBroken clouds.20 mph63%29.80 "HgN/A
4:20 PM63 °FPassing clouds.16 mph42%29.77 "HgN/A
3:50 PM63 °FPassing clouds.18 mph45%29.77 "HgN/A
3:20 PM63 °FPassing clouds.20 mph42%29.80 "HgN/A
2:50 PM63 °FSunny.17 mph42%29.80 "Hg10 mi
2:20 PM64 °FPassing clouds.17 mph46%29.80 "HgN/A
1:50 PM63 °FPassing clouds.20 mph45%29.80 "HgN/A
1:20 PM63 °FPassing clouds.20 mph45%29.80 "HgN/A
12:50 PM63 °FSunny.20 mph45%29.80 "Hg10 mi
12:20 PM61 °FScattered clouds.20 mph52%29.80 "HgN/A
11:50 AM63 °FScattered clouds.16 mph52%29.80 "HgN/A
11:20 AM61 °FScattered clouds.21 mph48%29.80 "HgN/A
10:50 AM59 °FScattered clouds.20 mph55%29.83 "HgN/A
10:20 AM59 °FPassing clouds.16 mph59%29.80 "HgN/A
9:50 AM59 °FPassing clouds.15 mph59%29.80 "HgN/A
9:20 AM57 °FSunny.15 mph63%29.80 "Hg10 mi
8:50 AM57 °FSunny.12 mph67%29.80 "Hg10 mi
8:20 AM55 °FPassing clouds.10 mph72%29.80 "HgN/A
7:50 AM54 °FSunny.7 mph77%29.80 "Hg10 mi
7:20 AM50 °FSunny.6 mph88%29.80 "Hg10 mi
6:50 AM48 °FPassing clouds.3 mph87%29.80 "HgN/A
6:20 AM46 °FClear.5 mph82%29.80 "Hg10 mi
5:50 AM45 °FClear.6 mph81%29.80 "Hg10 mi
5:20 AM46 °FPassing clouds.7 mph82%29.80 "HgN/A
4:50 AM46 °FPassing clouds.6 mph82%29.80 "HgN/A
4:20 AM46 °FClear.7 mph82%29.80 "Hg10 mi
3:50 AM45 °FClear.8 mph87%29.80 "Hg10 mi
3:20 AM46 °FClear.7 mph82%29.80 "Hg10 mi
2:50 AM46 °FClear.5 mph82%29.77 "Hg10 mi
2:20 AM46 °FClear.6 mph82%29.80 "Hg10 mi
1:50 AM48 °FClear.7 mph76%29.80 "Hg10 mi
1:20 AM46 °FClear.8 mph82%29.80 "Hg10 mi
12:50 AM46 °FClear.7 mph82%29.80 "Hg10 mi
12:20 AM46 °FClear.7 mph82%29.80 "Hg10 mi
11:50 PM
Tue, May 5
48 °FClear.5 mph76%29.80 "Hg10 mi
11:20 PM50 °FClear.5 mph71%29.77 "Hg10 mi
10:50 PM52 °FClear.5 mph67%29.77 "Hg10 mi
10:20 PM50 °FClear.9 mph67%29.77 "Hg10 mi
9:50 PM55 °FSunny.14 mph55%29.74 "Hg10 mi
9:20 PM55 °FPassing clouds.13 mph63%29.74 "HgN/A
8:50 PM55 °FPassing clouds.10 mph63%29.71 "HgN/A
8:20 PM57 °FPassing clouds.18 mph59%29.68 "HgN/A
Weather by CustomWeather, © 2015

See weather overviewHow to use our weather pages